Wind_Speed
10 8 8 6 6 5 4 4 5 5 5 8 9 11 12 10 9 8 9 9 10 9 7 7 8 8 8 8 9 9 9 9 9 8 7 7 8 8 8 7 7 7 8 8
10 9 8 8 7 6 5 5 5 5 5 7 10 10 10 9 7 8 8 9 9 9 7 7 7 7 7 7 8 9 8 8 8 8 8 8 7 8 8 8 8 8 8 8
10 8 9 9 8 7 7 6 5 5 6 9 11 9 9 8 9 9 8 10 10 10 8 7 7 7 7 6 7 8 8 8 9 9 9 9 9 9 8 9 9 9 9 9
12 11 10 10 10 9 9 7 8 7 8 10 12 12 9 8 9 9 9 10 10 9 10 9 8 7 7 6 7 7 8 8 9 9 10 10 10 10 9 9 9 10 10 10
12 12 10 10 10 9 9 10 10 10 10 11 11 12 9 8 8 9 9 9 10 10 11 10 9 8 7 6 6 7 7 8 9 9 10 10 10 10 10 10 10 10 11 11
12 12 11 10 11 10 11 12 11 10 10 10 10 10 10 10 11 9 8 9 10 10 11 11 10 9 8 7 7 7 7 8 9 9 10 10 11 11 11 11 11 11 11 12
13 12 11 12 12 13 13 12 11 10 10 10 10 11 11 11 11 10 10 9 10 10 11 11 10 9 8 8 8 8 8 9 10 11 11 11 12 11 12 12 12 12 12 13
13 13 12 13 13 13 13 12 12 11 11 11 11 11 12 13 12 10 10 9 10 10 10 10 9 8 9 9 8 9 10 11 12 12 13 13 12 12 13 13 13 13 13 14
14 13 13 14 14 14 14 14 13 13 13 14 13 13 12 13 12 11 10 8 10 11 10 10 9 9 9 9 10 10 11 12 13 13 13 13 14 14 14 14 14 14 15 15
15 15 15 15 15 16 15 14 13 14 14 15 15 13 14 13 12 11 9 9 10 11 10 9 9 9 9 10 11 11 12 13 14 13 14 14 15 15 15 14 15 16 17 18
17 17 17 16 17 16 16 15 15 15 16 16 16 14 13 13 12 11 10 9 9 10 10 10 10 10 11 11 12 12 13 14 14 14 14 14 15 15 15 15 16 17 18 18
17 18 18 17 16 17 18 17 16 16 16 17 18 15 12 12 12 11 11 10 9 10 11 11 11 12 12 12 12 13 13 14 15 14 14 14 15 17 17 16 17 18 19 20
19 19 18 17 17 17 18 17 17 18 17 17 17 15 13 12 12 11 10 9 9 9 10 11 12 12 13 13 13 13 14 14 14 14 15 16 17 18 18 19 19 19 20 21
21 21 19 19 17 18 19 18 17 18 18 17 16 15 13 13 13 12 11 11 10 10 10 12 13 13 13 13 13 13 14 14 14 15 16 17 18 19 20 20 20 21 22 23
21 22 21 20 19 19 20 19 17 17 17 17 15 15 13 13 13 13 13 12 10 11 11 12 12 12 13 13 13 14 15 15 16 16 17 18 19 20 21 21 22 23 23 24
24 23 22 21 20 19 19 19 18 18 18 17 16 17 15 14 13 13 14 14 12 13 13 13 14 14 14 14 15 15 16 16 17 17 18 20 21 21 22 22 23 23 24 25
27 25 23 22 21 21 19 18 18 19 18 16 16 16 16 15 14 15 15 15 15 16 16 16 16 15 15 15 16 17 17 18 18 19 20 21 21 22 22 23 23 24 25 25
26 25 24 23 22 22 19 18 19 19 18 18 17 16 17 16 16 16 16 17 17 17 17 16 17 17 16 17 17 18 19 19 19 20 20 21 22 23 23 23 24 25 26 26
26 26 25 25 23 22 20 19 19 19 19 18 18 17 17 17 17 17 17 19 19 19 18 18 18 18 18 18 17 17 19 20 20 21 21 22 23 24 24 24 25 26 26 26
27 26 25 25 25 24 21 20 20 20 20 19 19 19 18 18 18 19 19 20 21 19 19 20 20 19 19 18 18 19 19 20 21 21 22 22 23 24 24 25 26 27 26 27
26 26 26 25 25 24 22 20 20 22 21 20 20 20 20 19 20 20 20 21 21 20 20 20 21 20 19 19 20 21 21 21 22 23 23 23 24 25 25 26 27 27 28 28
26 28 28 27 26 26 23 22 22 22 21 21 21 21 21 20 21 21 21 22 21 21 20 20 20 21 22 23 22 22 23 23 24 25 24 24 25 26 26 27 27 28 28 29
25 26 27 28 27 25 24 23 23 23 23 22 22 21 21 21 22 22 22 21 21 21 21 20 22 22 23 22 23 23 24 24 25 26 25 25 26 27 27 28 28 28 28 28
24 25 26 27 26 25 23 23 22 22 22 23 23 23 22 21 21 21 21 21 21 22 22 22 23 23 24 24 23 24 25 25 25 25 25 26 27 27 28 28 28 28 28 27
24 26 27 28 27 26 24 25 24 24 24 24 23 23 22 22 22 22 22 22 22 22 23 23 23 23 24 23 24 24 25 25 25 26 28 28 27 27 27 28 28 28 27 27
26 26 28 28 27 27 26 25 25 26 26 25 25 24 23 23 24 23 23 24 24 24 24 24 24 24 24 24 25 25 25 26 27 27 28 28 28 28 28 28 28 28 28 28
Wind_Direction
212 214 206 203 220 235 250 279 301 309 304 311 317 326 335 339 347 356 1 360 359 1 8 14 14 12 20 22 23 23 25 25 24 27 29 28 24 21 15 14 15 16 15 13
218 213 202 203 215 225 236 259 284 297 299 309 313 320 325 331 334 345 352 352 358 3 358 1 3 5 12 13 14 15 17 17 15 15 15 15 15 13 11 8 3 3 4 6
218 211 203 206 214 221 228 255 273 283 287 290 298 307 314 318 325 334 343 345 349 355 354 350 350 352 354 356 358 2 3 6 8 9 9 10 8 5 4 358 355 356 359 1
217 211 211 215 220 224 233 249 267 276 282 289 295 300 303 303 313 325 334 339 340 346 347 343 337 340 345 344 350 350 349 353 359 2 0 358 354 350 347 347 350 353 352 352
220 221 224 225 224 235 245 247 260 268 281 286 292 298 295 296 305 311 322 331 338 337 340 339 335 333 337 337 343 342 339 342 345 348 351 349 347 344 341 340 338 338 337 337
229 229 231 230 230 237 244 243 250 258 267 271 281 288 292 293 295 295 306 320 330 332 334 336 335 330 327 329 336 334 331 333 334 338 342 343 340 337 335 334 331 328 327 328
226 228 232 234 235 236 236 239 249 252 260 270 276 283 290 295 294 299 305 310 322 328 328 331 328 324 325 321 320 325 329 329 329 330 331 330 330 329 326 325 324 324 323 323
231 230 235 237 236 235 232 236 251 259 263 273 273 281 292 296 296 304 312 309 314 320 321 321 323 319 311 309 311 314 318 320 320 322 322 323 324 322 320 319 319 320 320 320
234 231 235 237 234 234 233 235 250 261 263 271 274 283 290 296 301 306 307 305 307 310 313 314 317 320 313 309 307 307 311 314 316 317 317 317 318 318 318 319 317 316 316 316
237 231 229 235 242 239 237 238 247 255 266 273 273 282 292 292 301 306 310 299 304 306 306 308 308 311 309 306 305 306 308 309 311 313 314 314 314 316 317 318 319 318 318 317
239 237 232 237 244 243 236 237 247 257 267 276 277 285 291 284 296 305 308 302 304 305 306 307 305 304 304 303 302 302 304 305 307 310 312 313 312 310 312 316 318 318 316 315
239 239 236 238 241 242 241 242 246 254 263 271 279 289 290 288 291 298 298 297 296 294 300 306 307 303 302 300 301 302 305 306 305 306 308 309 312 312 310 311 314 314 313 313
238 236 237 237 237 237 238 241 245 251 260 269 277 285 287 285 286 293 290 295 296 291 294 300 303 302 300 300 301 302 305 308 305 305 307 311 314 315 314 312 312 311 311 311
241 240 241 242 239 238 239 241 244 250 257 265 271 276 281 283 282 287 289 289 287 285 291 297 301 298 296 298 300 301 305 307 307 307 308 311 314 314 314 313 312 312 312 311
238 240 241 242 242 240 241 243 244 248 255 261 270 277 283 286 286 285 280 279 279 283 290 294 294 293 297 299 300 301 302 305 307 307 309 311 313 313 313 313 312 312 311 310
236 240 242 243 244 244 243 243 243 246 250 257 266 272 277 281 281 282 276 276 280 286 290 293 295 296 297 298 298 297 298 302 306 308 308 308 310 311 312 311 310 310 310 309
236 239 243 243 241 242 241 238 240 246 251 254 262 269 270 271 276 276 273 275 284 289 291 292 294 297 296 299 306 302 300 302 304 306 308 309 310 312 312 311 310 311 310 309
234 238 242 244 241 239 241 239 241 245 251 255 258 263 266 267 268 273 275 279 285 289 291 295 295 295 298 300 303 304 303 303 304 306 308 309 310 311 311 310 310 311 312 312
238 241 245 246 243 240 238 238 239 244 247 252 256 262 267 268 270 272 274 280 285 288 286 290 297 296 297 299 300 303 305 304 304 304 305 307 309 310 310 310 310 311 312 312
239 242 244 245 244 241 239 238 240 245 246 250 256 259 261 266 272 276 276 280 287 287 286 286 293 294 293 297 301 303 304 304 304 305 306 307 308 310 310 310 311 311 311 311
238 240 243 246 247 246 245 244 243 246 248 252 256 259 261 266 275 278 278 281 285 286 285 287 289 291 293 296 299 302 304 304 306 307 306 307 307 309 310 310 310 310 310 309
238 239 242 245 246 247 247 248 247 249 250 254 258 262 265 269 271 272 275 280 280 283 284 286 289 290 293 294 296 299 302 301 303 305 304 305 307 309 309 310 309 309 308 308
240 239 241 243 247 249 249 249 249 250 252 255 259 262 266 268 269 270 274 277 277 280 281 286 290 289 291 293 296 298 300 301 301 304 302 303 305 307 308 309 309 310 309 308
240 237 238 242 245 249 251 251 250 252 253 255 258 261 263 267 270 273 275 275 276 278 281 287 288 289 289 291 294 297 298 300 302 302 301 303 304 305 307 308 309 310 310 309
243 241 242 243 246 249 251 251 250 249 251 254 257 262 266 268 270 273 274 274 277 280 281 284 287 288 290 291 294 296 298 301 302 303 304 304 305 306 307 308 310 311 309 309
242 243 243 244 245 248 250 250 250 251 253 255 258 261 264 269 272 272 274 277 278 279 281 285 287 288 290 291 293 295 298 301 302 304 305 305 305 305 306 307 308 308 309 309
Height
5907 5909 5910 5911 5911 5911 5911 5911 5911 5911 5910 5910 5909 5908 5907 5906 5905 5904 5904 5903 5902 5900 5899 5898 5897 5895 5894 5893 5892 5890 5888 5886 5885 5883 5881 5880 5878 5877 5875 5874 5873 5871 5870 5869
5906 5907 5909 5909 5909 5909 5909 5909 5909 5908 5909 5909 5908 5907 5906 5905 5905 5904 5903 5902 5901 5900 5899 5898 5896 5895 5894 5893 5892 5890 5889 5887 5885 5884 5882 5880 5879 5877 5876 5875 5873 5871 5870 5868
5903 5906 5906 5906 5907 5907 5908 5908 5908 5907 5907 5907 5907 5906 5905 5904 5904 5903 5902 5901 5900 5899 5898 5897 5896 5895 5893 5892 5891 5890 5889 5887 5886 5884 5882 5880 5879 5877 5876 5874 5872 5870 5869 5867
5901 5903 5903 5904 5905 5905 5906 5907 5906 5905 5905 5905 5905 5904 5904 5903 5903 5902 5901 5900 5898 5897 5897 5896 5895 5893 5892 5891 5890 5889 5888 5887 5885 5884 5882 5880 5878 5877 5875 5873 5871 5870 5868 5866
5898 5899 5900 5901 5902 5903 5904 5904 5904 5904 5903 5904 5903 5902 5903 5901 5901 5901 5899 5898 5897 5896 5895 5894 5893 5892 5891 5890 5889 5888 5887 5885 5884 5883 5881 5879 5877 5875 5874 5872 5870 5868 5866 5864
5896 5896 5897 5898 5900 5900 5901 5902 5902 5902 5901 5901 5901 5900 5900 5899 5899 5899 5897 5896 5895 5894 5893 5892 5891 5890 5889 5889 5888 5887 5886 5884 5882 5881 5879 5878 5876 5874 5872 5870 5868 5867 5865 5862
5892 5893 5894 5895 5897 5898 5898 5899 5900 5899 5899 5899 5898 5897 5897 5896 5896 5896 5895 5894 5893 5891 5890 5890 5889 5889 5888 5887 5886 5885 5884 5883 5881 5879 5877 5876 5874 5872 5870 5868 5866 5864 5862 5860
5889 5891 5891 5892 5893 5894 5895 5896 5897 5897 5896 5896 5895 5894 5895 5893 5892 5892 5892 5891 5890 5889 5888 5888 5887 5887 5886 5885 5884 5883 5882 5881 5879 5877 5875 5873 5871 5869 5867 5865 5864 5862 5860 5857
5885 5888 5889 5889 5890 5891 5892 5893 5894 5894 5893 5893 5893 5892 5891 5890 5890 5889 5888 5887 5886 5886 5885 5885 5885 5884 5883 5882 5882 5880 5879 5878 5877 5874 5872 5870 5868 5866 5864 5862 5861 5859 5856 5854
5881 5884 5886 5886 5887 5888 5889 5890 5890 5890 5890 5889 5889 5889 5889 5888 5887 5887 5886 5885 5884 5883 5882 5882 5882 5881 5881 5880 5879 5878 5876 5875 5873 5871 5869 5867 5865 5863 5861 5859 5857 5855 5853 5850
5876 5879 5881 5882 5883 5883 5885 5886 5886 5886 5886 5886 5885 5888 5886 5885 5884 5883 5882 5881 5881 5881 5880 5879 5879 5879 5878 5877 5876 5875 5873 5871 5869 5868 5866 5863 5861 5859 5857 5855 5853 5851 5849 5846
5872 5874 5875 5877 5879 5879 5880 5881 5882 5883 5882 5882 5881 5884 5882 5881 5881 5880 5879 5879 5878 5878 5877 5876 5876 5875 5875 5874 5873 5872 5870 5867 5865 5864 5862 5860 5858 5856 5853 5851 5849 5847 5844 5841
5867 5869 5870 5873 5876 5875 5875 5876 5877 5878 5878 5878 5878 5880 5878 5878 5877 5877 5876 5876 5875 5875 5875 5874 5873 5872 5871 5870 5869 5868 5866 5864 5862 5860 5858 5856 5854 5852 5849 5847 5845 5842 5839 5836
5862 5863 5866 5868 5869 5870 5871 5872 5873 5873 5873 5874 5874 5874 5874 5874 5874 5873 5873 5872 5872 5872 5872 5871 5870 5869 5868 5867 5865 5864 5863 5861 5859 5857 5855 5852 5850 5848 5845 5843 5840 5837 5834 5831
5857 5858 5860 5862 5864 5865 5866 5868 5869 5869 5869 5870 5870 5870 5870 5870 5869 5869 5869 5869 5868 5868 5868 5867 5866 5865 5864 5863 5862 5861 5859 5857 5855 5853 5851 5848 5846 5844 5841 5838 5835 5832 5829 5826
5851 5853 5855 5857 5859 5860 5862 5863 5864 5865 5865 5865 5866 5866 5866 5866 5865 5865 5865 5865 5865 5864 5864 5863 5862 5861 5860 5859 5858 5856 5855 5853 5851 5849 5847 5844 5841 5839 5836 5833 5830 5827 5823 5820
5845 5847 5849 5851 5853 5855 5856 5858 5859 5860 5861 5861 5861 5862 5862 5862 5862 5862 5861 5861 5861 5861 5860 5860 5859 5858 5857 5855 5853 5852 5851 5848 5846 5844 5842 5839 5836 5834 5831 5828 5825 5821 5817 5814
5840 5842 5843 5846 5848 5849 5854 5853 5854 5855 5856 5856 5857 5858 5858 5859 5859 5858 5858 5857 5857 5857 5857 5856 5855 5854 5853 5851 5850 5848 5846 5843 5841 5839 5837 5834 5831 5828 5825 5822 5819 5815 5812 5808
5834 5836 5837 5839 5841 5843 5847 5847 5849 5850 5851 5851 5852 5853 5853 5854 5854 5854 5854 5854 5853 5853 5852 5851 5850 5849 5848 5847 5845 5843 5841 5839 5837 5834 5832 5829 5826 5823 5820 5817 5813 5809 5806 5802
5828 5830 5832 5833 5835 5837 5842 5843 5843 5845 5845 5847 5847 5848 5849 5849 5850 5850 5849 5849 5849 5848 5847 5846 5844 5843 5843 5842 5840 5839 5836 5834 5832 5830 5827 5824 5821 5818 5814 5811 5807 5803 5799 5796
5822 5823 5825 5827 5828 5831 5835 5837 5839 5840 5841 5842 5842 5843 5844 5844 5845 5846 5845 5844 5843 5843 5842 5841 5840 5839 5837 5836 5835 5833 5831 5829 5826 5824 5821 5818 5815 5812 5808 5804 5801 5797 5793 5789
5815 5817 5819 5821 5823 5827 5829 5831 5833 5834 5835 5836 5837 5838 5839 5839 5839 5839 5839 5839 5838 5837 5837 5836 5835 5834 5832 5831 5829 5827 5825 5823 5820 5818 5815 5812 5809 5805 5802 5798 5794 5790 5786 5783
5808 5811 5812 5815 5818 5820 5822 5824 5826 5827 5829 5830 5831 5832 5833 5833 5834 5834 5834 5833 5833 5832 5831 5830 5829 5828 5827 5825 5823 5822 5819 5817 5814 5811 5808 5805 5802 5798 5795 5791 5787 5784 5780 5776
5802 5803 5806 5808 5810 5812 5815 5817 5819 5820 5822 5823 5824 5826 5827 5827 5827 5828 5827 5827 5826 5826 5825 5824 5823 5822 5820 5819 5817 5815 5812 5810 5807 5804 5801 5798 5795 5791 5788 5784 5780 5777 5773 5769
5795 5796 5798 5800 5803 5805 5807 5810 5812 5814 5815 5816 5817 5819 5820 5820 5821 5821 5821 5820 5820 5820 5819 5818 5817 5815 5814 5812 5810 5808 5805 5803 5801 5798 5795 5791 5788 5784 5781 5777 5774 5770 5766 5762
5787 5789 5791 5793 5796 5798 5800 5803 5805 5807 5808 5810 5811 5812 5813 5814 5814 5815 5815 5814 5814 5813 5813 5811 5810 5809 5807 5805 5803 5801 5799 5796 5794 5790 5787 5784 5781 5777 5774 5770 5766 5762 5758 5754